Regional Weather Roundup
Issued by NWS

Home | Current Version | Previous Version | Text Only | Print | Product List | Glossary Off
Versions: 1 2 3 4 5 6 7 8 9 10 11 12 13 14 15 16 17 18 19 20 21 22 23 24 25 26 27 28 29 30 31 32 33 34 35 36 37 38 39 40 41 42 43 44 45 46 47 48 49 50

000
ASUS43 KTOP 010159
RWRKS

WEATHER ROUNDUP FOR KANSAS
NATIONAL WEATHER SERVICE GOODLAND KS
900 PM CDT THU JUL 31 2014

NOTE:  "FAIR" INDICATES FEW OR NO CLOUDS BELOW 12,000 FEET WITH NO
SIGNIFICANT WEATHER AND/OR OBSTRUCTIONS TO VISIBILITY.

KSZ001>006-013>018-027>032-041>047-010300-
NORTHWEST KANSAS

CITY           SKY/WX    TMP DP  RH WIND       PRES   REMARKS
GOODLAND       CLEAR     77  45  32 CALM      30.14S
HAYS           CLEAR     75  55  50 S10       30.05S
HILL CITY      MOCLDY    83  52  34 CALM      30.03S
RUSSELL        PTCLDY    76  58  53 S9        30.03R
$$

KSZ061>065-074>080-084>089-010300-
SOUTHWEST KANSAS

CITY           SKY/WX    TMP DP  RH WIND       PRES   REMARKS
DODGE CITY     CLEAR     71  58  63 SE7       30.10S
ELKHART          N/A     70  56  61 E2          N/A
GARDEN CITY    PTCLDY    72  60  66 W5        30.11F
GREAT BEND       N/A     73  61  64 S7        30.05S
LIBERAL        PTCLDY    75  52  43 E3        30.15R
$$

KSZ066>073-081>083-090>101-010300-
SOUTHEAST KANSAS

CITY           SKY/WX    TMP DP  RH WIND       PRES   REMARKS
CHANUTE        CLEAR     69  61  75 SE3       30.04F
COFFEYVILLE    PTCLDY    74  68  81 S6        30.04R
HUTCHINSON     CLEAR     71  56  58 SE7       30.05S
NEWTON         CLEAR     73  54  49 SW6       30.09R
PARSONS        CLEAR     70  63  78 CALM      30.05S
WICHITA INTL   PTCLDY    73  56  54 SE6       30.05R
WICHITA JABRA  CLEAR     74  57  55 S6        30.05S
WINFIELD       CLEAR     75  63  66 SE3       30.06S
$$

KSZ007>012-019>026-033>040-048>060-102>105-010300-
NORTHEAST KANSAS

CITY           SKY/WX    TMP DP  RH WIND       PRES   REMARKS
CONCORDIA      CLEAR     75  56  51 S10       30.00S
EMPORIA        CLEAR     71  58  63 SE6       30.04F
LAWRENCE       PTCLDY    71  63  75 NE5       30.03S
MANHATTAN      CLEAR     75  58  55 CALM      30.02R
OLATHE IND     PTCLDY    75  58  55 SE6       30.05S
OLATHE EXE     PTCLDY    74  59  59 SE5       30.04S
SALINA         CLEAR     76  51  41 S9        30.02S
TOPEKA BILLARD PTCLDY    76  58  53 CALM      30.03R
TOPEKA FORBES  CLEAR     74  57  55 CALM      30.03S
$$



USA.gov is the U.S. government's official web portal to all federal, state and local government web resources and services.